Time,TemperatureF,DewpointF,PressureIn,WindDirection,WindDirectionDegrees,WindSpeedMPH,WindSpeedGustMPH,Humidity,HourlyPrecipIn,Conditions,Clouds,dailyrainin,SoftwareType,DateUTC
2013-07-24 00:00:00,62.8,62.8,29.76,SSE,158,0.0,0.0,100,0.00,RA,,0.00,WeatherDisplay:10.37,2013-07-24 04:00:00,
2013-07-24 00:01:00,62.8,62.8,29.76,SSE,158,0.0,0.0,100,0.00,RA,,0.00,WeatherDisplay:10.37,2013-07-24 04:01:00,
2013-07-24 00:02:00,62.8,62.8,29.76,SSE,158,0.0,0.0,100,0.00,RA,,0.00,WeatherDisplay:10.37,2013-07-24 04:02:00,
2013-07-24 00:03:00,62.8,62.8,29.76,SSE,158,0.0,0.0,100,0.00,RA,,0.00,WeatherDisplay:10.37,2013-07-24 04:03:00,
2013-07-24 00:04:00,62.8,62.8,29.76,SSE,158,0.0,0.0,100,0.00,RA,,0.00,WeatherDisplay:10.37,2013-07-24 04:04:00,
2013-07-24 00:09:00,62.4,62.4,29.76,SSE,158,0.0,0.0,100,0.00,RA,RA,0.00,WeatherDisplay:10.37,2013-07-24 04:09:00,
2013-07-24 00:15:00,62.4,62.4,29.76,SSE,158,0.0,0.0,100,0.00,BKN,,0.00,WeatherDisplay:10.37,2013-07-24 04:15:00,
2013-07-24 00:20:00,62.4,62.4,29.77,SSE,158,0.0,0.0,100,0.00,BKN,,0.00,WeatherDisplay:10.37,2013-07-24 04:20:00,
2013-07-24 00:25:00,62.4,62.4,29.77,SSE,158,0.0,0.0,100,0.00,BKN,,0.00,WeatherDisplay:10.37,2013-07-24 04:25:00,
2013-07-24 00:30:00,62.2,62.2,29.77,SSE,158,0.0,0.0,100,0.00,BKN,,0.00,WeatherDisplay:10.37,2013-07-24 04:30:00,
2013-07-24 00:35:00,62.4,62.4,29.77,SSE,158,0.0,0.0,100,0.00,BKN,,0.00,WeatherDisplay:10.37,2013-07-24 04:35:00,
2013-07-24 00:40:00,62.4,62.4,29.77,SSE,158,0.0,0.0,100,0.00,BKN,,0.00,WeatherDisplay:10.37,2013-07-24 04:40:00,
2013-07-24 00:45:00,62.4,62.4,29.77,SSE,158,0.0,0.0,100,0.00,BKN,,0.00,WeatherDisplay:10.37,2013-07-24 04:45:00,
2013-07-24 00:50:00,62.1,62.1,29.77,SSE,158,0.0,0.0,100,0.00,BKN,,0.00,WeatherDisplay:10.37,2013-07-24 04:50:00,
2013-07-24 00:55:00,62.2,62.2,29.78,SSE,158,0.0,0.0,100,0.00,BKN,,0.00,WeatherDisplay:10.37,2013-07-24 04:55:00,
2013-07-24 01:00:00,62.1,62.1,29.78,SSE,158,0.0,0.0,100,0.00,BKN,,0.00,WeatherDisplay:10.37,2013-07-24 05:00:00,
2013-07-24 01:05:00,62.2,62.2,29.78,SSE,158,0.0,0.0,100,0.00,BKN,,0.00,WeatherDisplay:10.37,2013-07-24 05:05:00,
2013-07-24 01:10:00,62.2,62.2,29.78,SSE,158,0.0,0.0,100,0.00,BKN,,0.00,WeatherDisplay:10.37,2013-07-24 05:10:00,
2013-07-24 01:15:00,62.1,62.1,29.78,SSE,158,0.0,0.0,100,0.00,BKN,,0.00,WeatherDisplay:10.37,2013-07-24 05:15:00,
2013-07-24 01:20:00,62.4,62.4,29.78,SSE,158,1.0,3.6,100,0.00,BKN,,0.00,WeatherDisplay:10.37,2013-07-24 05:20:00,
2013-07-24 01:25:00,62.4,62.4,29.78,SSE,158,0.0,0.0,100,0.00,BKN,,0.00,WeatherDisplay:10.37,2013-07-24 05:25:00,
2013-07-24 01:30:00,62.4,62.4,29.78,SSE,158,0.0,0.0,100,0.00,BKN,,0.00,WeatherDisplay:10.37,2013-07-24 05:30:00,
2013-07-24 01:35:00,62.6,62.6,29.78,SSE,158,2.4,2.7,100,0.00,BKN,,0.00,WeatherDisplay:10.37,2013-07-24 05:35:00,
2013-07-24 01:40:00,62.6,62.6,29.78,SSE,158,0.5,2.3,100,0.00,BKN,,0.00,WeatherDisplay:10.37,2013-07-24 05:40:00,
2013-07-24 01:45:00,63.0,63.0,29.78,SSE,158,0.0,0.0,100,0.00,BKN,,0.00,WeatherDisplay:10.37,2013-07-24 05:45:00,
2013-07-24 01:50:00,63.0,63.0,29.78,SSE,158,0.6,2.3,100,0.00,BKN,,0.00,WeatherDisplay:10.37,2013-07-24 05:50:00,
2013-07-24 01:55:00,63.1,63.1,29.78,SSE,158,0.0,0.0,100,0.00,BKN,,0.00,WeatherDisplay:10.37,2013-07-24 05:55:00,
2013-07-24 02:00:00,63.1,63.1,29.78,SSE,158,0.0,0.0,100,0.00,BKN,,0.00,WeatherDisplay:10.37,2013-07-24 06:00:00,
2013-07-24 02:05:00,63.5,63.5,29.78,SSE,158,0.0,0.0,100,0.00,BKN,,0.00,WeatherDisplay:10.37,2013-07-24 06:05:00,
2013-07-24 02:10:00,63.5,63.5,29.78,SSE,158,0.0,0.0,100,0.00,BKN,,0.00,WeatherDisplay:10.37,2013-07-24 06:10:00,
2013-07-24 02:15:00,63.5,63.5,29.78,SSE,158,0.0,0.0,100,0.00,BKN,,0.00,WeatherDisplay:10.37,2013-07-24 06:15:00,
2013-07-24 02:20:00,63.5,63.5,29.78,SSE,158,0.0,0.0,100,0.00,BKN,,0.00,WeatherDisplay:10.37,2013-07-24 06:20:00,
2013-07-24 02:25:00,63.5,63.5,29.78,SSE,158,0.0,0.0,100,0.00,BKN,,0.00,WeatherDisplay:10.37,2013-07-24 06:25:00,
2013-07-24 02:30:00,63.9,63.9,29.77,SSE,158,0.0,0.0,100,0.00,BKN,,0.00,WeatherDisplay:10.37,2013-07-24 06:30:00,
2013-07-24 02:35:00,63.9,63.9,29.77,SSE,158,0.0,0.0,100,0.00,BKN,,0.00,WeatherDisplay:10.37,2013-07-24 06:35:00,
2013-07-24 02:40:00,63.9,63.9,29.77,SSE,158,0.0,0.0,100,0.00,BKN,,0.00,WeatherDisplay:10.37,2013-07-24 06:40:00,
2013-07-24 02:45:00,63.9,63.9,29.77,SSE,158,0.0,0.0,100,0.00,BKN,,0.00,WeatherDisplay:10.37,2013-07-24 06:45:00,
2013-07-24 02:50:00,63.9,63.9,29.77,SSE,158,0.0,0.0,100,0.00,BKN,,0.00,WeatherDisplay:10.37,2013-07-24 06:50:00,
2013-07-24 02:55:00,64.0,64.0,29.77,SSE,158,0.0,0.0,100,0.00,BKN,,0.00,WeatherDisplay:10.37,2013-07-24 06:55:00,
2013-07-24 03:00:00,64.2,64.2,29.77,SSE,158,0.0,0.0,100,0.00,BKN,,0.00,WeatherDisplay:10.37,2013-07-24 07:00:00,
2013-07-24 03:06:00,64.2,64.2,29.77,SSE,158,0.0,0.0,100,0.00,BKN,,0.00,WeatherDisplay:10.37,2013-07-24 07:06:00,
2013-07-24 03:12:00,64.2,64.2,29.77,SSE,158,0.0,0.0,100,0.00,BKN,,0.00,WeatherDisplay:10.37,2013-07-24 07:12:00,
2013-07-24 03:17:00,64.2,64.2,29.76,SSE,158,0.0,0.0,100,0.00,BKN,,0.00,WeatherDisplay:10.37,2013-07-24 07:17:00,
2013-07-24 03:22:00,64.4,64.4,29.76,SSE,158,0.0,0.0,100,0.00,BKN,,0.00,WeatherDisplay:10.37,2013-07-24 07:22:00,
2013-07-24 03:27:00,64.4,64.4,29.76,SSE,158,0.0,0.0,100,0.00,BKN,,0.00,WeatherDisplay:10.37,2013-07-24 07:27:00,
2013-07-24 03:32:00,64.4,64.4,29.76,SSE,158,0.0,0.0,100,0.00,BKN,,0.00,WeatherDisplay:10.37,2013-07-24 07:32:00,
2013-07-24 03:37:00,64.4,64.4,29.76,SSE,158,0.0,0.0,100,0.00,BKN,,0.00,WeatherDisplay:10.37,2013-07-24 07:37:00,
2013-07-24 03:42:00,64.4,64.4,29.76,SSE,158,0.0,0.0,100,0.00,BKN,,0.00,WeatherDisplay:10.37,2013-07-24 07:42:00,
2013-07-24 03:47:00,64.4,64.4,29.76,SSE,158,0.0,0.0,100,0.00,BKN,,0.00,WeatherDisplay:10.37,2013-07-24 07:47:00,
2013-07-24 03:52:00,64.4,64.4,29.77,SSE,158,0.0,0.0,100,0.00,BKN,,0.00,WeatherDisplay:10.37,2013-07-24 07:52:00,
2013-07-24 03:57:00,64.4,64.4,29.77,SSE,158,0.0,0.0,100,0.00,BKN,,0.00,WeatherDisplay:10.37,2013-07-24 07:57:00,
2013-07-24 04:02:00,64.6,64.6,29.77,SSE,158,0.0,0.0,100,0.00,BKN,,0.00,WeatherDisplay:10.37,2013-07-24 08:02:00,
2013-07-24 04:07:00,64.6,64.6,29.76,SSE,158,0.0,0.0,100,0.00,BKN,,0.00,WeatherDisplay:10.37,2013-07-24 08:07:00,
2013-07-24 04:12:00,64.6,64.6,29.76,SSE,158,0.0,0.0,100,0.00,BKN,,0.00,WeatherDisplay:10.37,2013-07-24 08:12:00,
2013-07-24 04:17:00,64.6,64.6,29.77,SSE,158,1.5,2.7,100,0.00,BKN,,0.00,WeatherDisplay:10.37,2013-07-24 08:17:00,
2013-07-24 04:22:00,64.6,64.6,29.77,SSE,158,0.0,0.0,100,0.00,BKN,,0.00,WeatherDisplay:10.37,2013-07-24 08:22:00,
2013-07-24 04:27:00,64.6,64.6,29.77,SSE,158,0.0,0.0,100,0.00,BKN,,0.00,WeatherDisplay:10.37,2013-07-24 08:27:00,
2013-07-24 04:32:00,64.8,64.8,29.77,NNW,338,4.4,5.8,100,0.00,BKN,,0.00,WeatherDisplay:10.37,2013-07-24 08:32:00,
2013-07-24 04:37:00,64.8,64.8,29.77,NNW,338,2.5,5.8,100,0.00,BKN,,0.00,WeatherDisplay:10.37,2013-07-24 08:37:00,
2013-07-24 04:42:00,64.8,64.8,29.77,NNW,338,0.8,5.8,100,0.00,BKN,,0.00,WeatherDisplay:10.37,2013-07-24 08:42:00,
2013-07-24 04:47:00,64.8,64.8,29.77,NE,45,3.1,5.8,100,0.00,BKN,,0.00,WeatherDisplay:10.37,2013-07-24 08:47:00,
2013-07-24 04:52:00,64.8,64.8,29.78,South,180,3.4,10.4,100,0.00,BKN,,0.00,WeatherDisplay:10.37,2013-07-24 08:52:00,
2013-07-24 04:57:00,64.8,64.8,29.78,NNE,22,6.3,7.0,100,0.00,BKN,,0.00,WeatherDisplay:10.37,2013-07-24 08:57:00,
2013-07-24 05:02:00,64.6,64.6,29.78,WNW,292,5.5,8.1,100,0.00,BKN,,0.00,WeatherDisplay:10.37,2013-07-24 09:02:00,
2013-07-24 05:07:00,64.4,64.4,29.78,NNW,338,6.1,6.9,100,0.00,BKN,,0.00,WeatherDisplay:10.37,2013-07-24 09:07:00,
2013-07-24 05:12:00,64.0,64.0,29.78,ENE,68,7.7,12.9,100,0.00,BKN,,0.00,WeatherDisplay:10.37,2013-07-24 09:12:00,
2013-07-24 05:17:00,63.9,63.9,29.79,East,90,6.4,11.5,100,0.00,BKN,,0.00,WeatherDisplay:10.37,2013-07-24 09:17:00,
2013-07-24 05:22:00,63.7,63.7,29.79,East,90,6.1,9.5,100,0.00,BKN,,0.00,WeatherDisplay:10.37,2013-07-24 09:22:00,
2013-07-24 05:27:00,63.7,63.7,29.79,NE,45,4.4,5.3,100,0.00,BKN,,0.00,WeatherDisplay:10.37,2013-07-24 09:27:00,
2013-07-24 05:32:00,63.7,63.7,29.79,NE,45,3.3,6.9,100,0.01,RA,,0.01,WeatherDisplay:10.37,2013-07-24 09:32:00,
2013-07-24 05:37:00,63.7,63.7,29.79,NE,45,3.6,4.6,100,0.01,RA,,0.01,WeatherDisplay:10.37,2013-07-24 09:37:00,
2013-07-24 05:42:00,63.5,63.5,29.80,ENE,68,7.5,9.2,100,0.01,RA,,0.01,WeatherDisplay:10.37,2013-07-24 09:42:00,
2013-07-24 05:47:00,63.5,63.5,29.80,ENE,68,3.9,4.6,100,0.01,BKN,,0.01,WeatherDisplay:10.37,2013-07-24 09:47:00,
2013-07-24 05:52:00,63.5,63.5,29.80,ENE,68,4.4,6.1,100,0.01,BKN,,0.01,WeatherDisplay:10.37,2013-07-24 09:52:00,
2013-07-24 05:58:00,63.5,63.5,29.80,ENE,68,5.0,6.1,100,0.01,BKN,,0.01,WeatherDisplay:10.37,2013-07-24 09:58:00,
2013-07-24 06:03:00,63.1,63.1,29.80,ENE,68,6.3,7.0,100,0.01,BKN,,0.01,WeatherDisplay:10.37,2013-07-24 10:03:00,
2013-07-24 06:08:00,63.0,63.0,29.81,ENE,68,4.2,5.8,100,0.01,BKN,,0.01,WeatherDisplay:10.37,2013-07-24 10:08:00,
2013-07-24 06:13:00,63.0,63.0,29.81,ENE,68,2.9,5.8,100,0.01,BKN,,0.01,WeatherDisplay:10.37,2013-07-24 10:13:00,
2013-07-24 06:18:00,63.3,63.3,29.81,ENE,68,0.5,3.5,100,0.01,BKN,,0.01,WeatherDisplay:10.37,2013-07-24 10:18:00,
2013-07-24 06:23:00,63.0,63.0,29.81,ESE,112,5.6,8.1,100,0.01,BKN,,0.01,WeatherDisplay:10.37,2013-07-24 10:23:00,
2013-07-24 06:28:00,62.6,62.3,29.82,East,90,4.8,7.0,99,0.01,BKN,,0.01,WeatherDisplay:10.37,2013-07-24 10:28:00,
2013-07-24 06:33:00,62.4,62.1,29.82,NNW,338,3.7,5.8,99,0.00,OVC,,0.01,WeatherDisplay:10.37,2013-07-24 10:33:00,
2013-07-24 06:38:00,62.4,61.8,29.82,SW,225,2.7,4.6,98,0.00,OVC,,0.01,WeatherDisplay:10.37,2013-07-24 10:38:00,
2013-07-24 06:43:00,62.1,61.5,29.83,NE,45,0.8,5.8,98,0.00,OVC,,0.01,WeatherDisplay:10.37,2013-07-24 10:43:00,
2013-07-24 06:48:00,62.1,61.2,29.83,NE,45,4.0,4.6,97,0.00,OVC,,0.01,WeatherDisplay:10.37,2013-07-24 10:48:00,
2013-07-24 06:53:00,61.9,60.7,29.83,NE,45,5.1,5.8,96,0.00,OVC,,0.01,WeatherDisplay:10.37,2013-07-24 10:53:00,
2013-07-24 06:58:00,61.9,60.7,29.84,NE,45,0.8,5.8,96,0.00,OVC,,0.01,WeatherDisplay:10.37,2013-07-24 10:58:00,
2013-07-24 07:03:00,61.7,60.5,29.84,ENE,68,0.0,3.5,96,0.00,BKN,,0.01,WeatherDisplay:10.37,2013-07-24 11:03:00,
2013-07-24 07:08:00,61.9,61.0,29.84,ENE,68,0.0,2.7,97,0.00,BKN,,0.01,WeatherDisplay:10.37,2013-07-24 11:08:00,
2013-07-24 07:13:00,61.5,60.3,29.84,NE,45,3.8,5.8,96,0.00,BKN,,0.01,WeatherDisplay:10.37,2013-07-24 11:13:00,
2013-07-24 07:18:00,61.5,60.3,29.84,NE,45,3.1,4.6,96,0.00,BKN,,0.01,WeatherDisplay:10.37,2013-07-24 11:18:00,
2013-07-24 07:23:00,61.5,60.3,29.84,NE,45,3.0,5.8,96,0.00,BKN,,0.01,WeatherDisplay:10.37,2013-07-24 11:23:00,
2013-07-24 07:28:00,61.9,60.5,29.86,NE,45,2.8,4.4,95,0.00,BKN,,0.01,WeatherDisplay:10.37,2013-07-24 11:28:00,
2013-07-24 07:33:00,61.9,60.5,29.86,NNE,22,0.0,0.0,95,0.00,BKN,,0.01,WeatherDisplay:10.37,2013-07-24 11:33:00,
2013-07-24 07:38:00,62.1,60.7,29.86,NNE,22,0.0,0.0,95,0.00,BKN,,0.01,WeatherDisplay:10.37,2013-07-24 11:38:00,
2013-07-24 07:43:00,62.1,60.7,29.87,NNE,22,2.9,3.6,95,0.00,BKN,,0.01,WeatherDisplay:10.37,2013-07-24 11:43:00,
2013-07-24 07:48:00,62.2,60.5,29.87,NNE,22,0.1,3.6,94,0.00,BKN,,0.01,WeatherDisplay:10.37,2013-07-24 11:48:00,
2013-07-24 07:53:00,62.1,59.7,29.87,NW,315,3.2,5.8,92,0.00,BKN,,0.01,WeatherDisplay:10.37,2013-07-24 11:53:00,
2013-07-24 07:58:00,62.1,59.7,29.87,NE,45,3.7,6.1,92,0.00,BKN,,0.01,WeatherDisplay:10.37,2013-07-24 11:58:00,
2013-07-24 08:03:00,62.1,59.7,29.87,NE,45,3.6,4.6,92,0.00,BKN,,0.01,WeatherDisplay:10.37,2013-07-24 12:03:00,
2013-07-24 08:08:00,62.2,59.5,29.88,NE,45,2.6,4.6,91,0.00,BKN,,0.01,WeatherDisplay:10.37,2013-07-24 12:08:00,
2013-07-24 08:13:00,62.2,59.2,29.88,NE,45,3.3,5.3,90,0.00,BKN,,0.01,WeatherDisplay:10.37,2013-07-24 12:13:00,
2013-07-24 08:18:00,62.2,58.9,29.88,ENE,68,3.5,6.9,89,0.00,BKN,,0.01,WeatherDisplay:10.37,2013-07-24 12:18:00,
2013-07-24 08:23:00,63.0,59.1,29.88,ENE,68,4.1,5.8,87,0.00,BKN,,0.01,WeatherDisplay:10.37,2013-07-24 12:23:00,
2013-07-24 08:28:00,63.0,59.1,29.88,ENE,68,4.4,4.6,87,0.00,BKN,,0.01,WeatherDisplay:10.37,2013-07-24 12:28:00,
2013-07-24 08:33:00,65.7,59.7,29.88,East,90,4.2,5.8,81,0.00,BKN,,0.01,WeatherDisplay:10.37,2013-07-24 12:33:00,
2013-07-24 08:38:00,66.9,59.5,29.88,ENE,68,7.8,9.2,77,0.00,BKN,,0.01,WeatherDisplay:10.37,2013-07-24 12:38:00,
2013-07-24 08:43:00,68.4,59.8,29.88,NE,45,6.4,8.1,74,0.00,BKN,,0.01,WeatherDisplay:10.37,2013-07-24 12:43:00,
2013-07-24 08:48:00,68.2,58.8,29.88,NNE,22,7.8,11.5,72,0.00,BKN,,0.01,WeatherDisplay:10.37,2013-07-24 12:48:00,
2013-07-24 08:53:00,69.3,60.3,29.88,NE,45,5.5,6.1,73,0.00,BKN,,0.01,WeatherDisplay:10.37,2013-07-24 12:53:00,
2013-07-24 08:58:00,65.1,58.8,29.88,East,90,7.8,9.5,80,0.00,BKN,,0.01,WeatherDisplay:10.37,2013-07-24 12:58:00,
2013-07-24 09:03:00,64.9,57.9,29.88,East,90,3.0,6.9,78,0.00,BKN,,0.01,WeatherDisplay:10.37,2013-07-24 13:03:00,
2013-07-24 09:08:00,64.9,57.5,29.88,NE,45,4.3,9.2,77,0.00,BKN,,0.01,WeatherDisplay:10.37,2013-07-24 13:08:00,
2013-07-24 09:13:00,65.8,58.0,29.88,NE,45,4.3,5.8,76,0.00,BKN,,0.01,WeatherDisplay:10.37,2013-07-24 13:13:00,
2013-07-24 09:18:00,66.0,57.8,29.89,ENE,68,8.7,12.7,75,0.00,BKN,,0.01,WeatherDisplay:10.37,2013-07-24 13:18:00,
2013-07-24 09:23:00,66.7,57.8,29.89,NE,45,7.2,10.4,73,0.00,BKN,,0.01,WeatherDisplay:10.37,2013-07-24 13:23:00,
2013-07-24 09:28:00,66.4,57.1,29.89,NE,45,8.8,10.4,72,0.00,BKN,,0.01,WeatherDisplay:10.37,2013-07-24 13:28:00,
2013-07-24 09:33:00,65.7,56.8,29.89,NNE,22,8.9,11.5,73,0.00,BKN,,0.01,WeatherDisplay:10.37,2013-07-24 13:33:00,
2013-07-24 09:38:00,65.1,56.6,29.89,NNW,338,7.3,15.0,74,0.00,BKN,,0.01,WeatherDisplay:10.37,2013-07-24 13:38:00,
2013-07-24 09:43:00,65.5,56.6,29.90,East,90,6.1,11.5,73,0.00,BKN,,0.01,WeatherDisplay:10.37,2013-07-24 13:43:00,
2013-07-24 09:48:00,66.2,56.9,29.90,ENE,68,7.0,9.2,72,0.00,BKN,,0.01,WeatherDisplay:10.37,2013-07-24 13:48:00,
2013-07-24 09:53:00,65.5,57.0,29.91,ENE,68,2.8,3.6,74,0.00,BKN,,0.01,WeatherDisplay:10.37,2013-07-24 13:53:00,
2013-07-24 09:58:00,66.2,57.7,29.91,NE,45,8.2,12.1,74,0.00,BKN,,0.01,WeatherDisplay:10.37,2013-07-24 13:58:00,
2013-07-24 10:03:00,65.7,56.8,29.91,NE,45,6.6,8.1,73,0.00,BKN,,0.01,WeatherDisplay:10.37,2013-07-24 14:03:00,
2013-07-24 10:08:00,65.3,56.8,29.91,NNE,22,6.1,10.4,74,0.00,BKN,,0.01,WeatherDisplay:10.37,2013-07-24 14:08:00,
2013-07-24 10:13:00,65.3,56.8,29.91,NNE,22,2.6,4.6,74,0.00,BKN,,0.01,WeatherDisplay:10.37,2013-07-24 14:13:00,
2013-07-24 10:18:00,65.8,56.5,29.91,NNW,338,6.2,10.4,72,0.00,BKN,,0.01,WeatherDisplay:10.37,2013-07-24 14:18:00,
2013-07-24 10:23:00,66.0,56.7,29.91,East,90,5.2,7.0,72,0.00,BKN,,0.01,WeatherDisplay:10.37,2013-07-24 14:23:00,
2013-07-24 10:28:00,65.5,56.6,29.91,North,360,3.9,9.2,73,0.00,BKN,,0.01,WeatherDisplay:10.37,2013-07-24 14:28:00,
2013-07-24 10:33:00,65.3,57.5,29.91,North,360,5.9,7.8,76,0.00,BKN,,0.01,WeatherDisplay:10.37,2013-07-24 14:33:00,
2013-07-24 10:38:00,65.7,56.8,29.91,East,90,5.8,9.5,73,0.00,BKN,,0.01,WeatherDisplay:10.37,2013-07-24 14:38:00,
2013-07-24 10:43:00,65.3,56.0,29.91,North,360,4.3,6.9,72,0.00,BKN,,0.01,WeatherDisplay:10.37,2013-07-24 14:43:00,
2013-07-24 10:48:00,65.8,56.1,29.91,East,90,2.6,3.6,71,0.00,BKN,,0.01,WeatherDisplay:10.37,2013-07-24 14:48:00,
2013-07-24 10:53:00,66.6,56.5,29.91,East,90,5.8,8.1,70,0.00,BKN,,0.01,WeatherDisplay:10.37,2013-07-24 14:53:00,
2013-07-24 10:58:00,66.7,56.2,29.91,North,360,5.0,10.4,69,0.00,BKN,,0.01,WeatherDisplay:10.37,2013-07-24 14:58:00,
2013-07-24 11:03:00,66.7,56.6,29.91,NE,45,4.5,6.9,70,0.00,BKN,,0.01,WeatherDisplay:10.37,2013-07-24 15:03:00,
2013-07-24 11:08:00,66.6,56.5,29.91,NE,45,4.8,6.1,70,0.00,BKN,,0.01,WeatherDisplay:10.37,2013-07-24 15:08:00,
2013-07-24 11:13:00,66.9,57.6,29.91,West,270,2.9,6.1,72,0.00,BKN,,0.01,WeatherDisplay:10.37,2013-07-24 15:13:00,
2013-07-24 11:18:00,66.4,56.7,29.91,ENE,68,3.8,9.2,71,0.00,BKN,,0.01,WeatherDisplay:10.37,2013-07-24 15:18:00,
2013-07-24 11:23:00,67.6,57.5,29.91,ENE,68,4.6,5.8,70,0.00,BKN,,0.01,WeatherDisplay:10.37,2013-07-24 15:23:00,
2013-07-24 11:28:00,68.0,57.0,29.92,ENE,68,5.3,6.1,68,0.00,BKN,,0.01,WeatherDisplay:10.37,2013-07-24 15:28:00,
2013-07-24 11:33:00,68.0,57.4,29.92,NE,45,3.7,5.8,69,0.00,BKN,,0.01,WeatherDisplay:10.37,2013-07-24 15:33:00,
2013-07-24 11:38:00,68.0,57.4,29.92,East,90,4.0,5.8,69,0.00,BKN,,0.01,WeatherDisplay:10.37,2013-07-24 15:38:00,
2013-07-24 11:43:00,68.0,57.4,29.92,NE,45,4.5,8.1,69,0.00,BKN,,0.01,WeatherDisplay:10.37,2013-07-24 15:43:00,
2013-07-24 11:48:00,67.5,57.0,29.92,East,90,4.5,9.2,69,0.00,BKN,,0.01,WeatherDisplay:10.37,2013-07-24 15:48:00,
2013-07-24 11:53:00,67.5,56.6,29.92,NE,45,6.2,7.0,68,0.00,BKN,,0.01,WeatherDisplay:10.37,2013-07-24 15:53:00,
2013-07-24 11:58:00,68.2,56.8,29.92,NE,45,3.5,6.9,67,0.00,BKN,,0.01,WeatherDisplay:10.37,2013-07-24 15:58:00,
2013-07-24 12:03:00,69.3,57.9,29.92,NE,45,0.8,4.6,67,0.00,BKN,,0.01,WeatherDisplay:10.37,2013-07-24 16:03:00,
2013-07-24 12:08:00,69.6,57.3,29.93,ENE,68,3.5,6.9,65,0.00,BKN,,0.01,WeatherDisplay:10.37,2013-07-24 16:08:00,
2013-07-24 12:13:00,70.2,57.4,29.93,ENE,68,5.4,8.1,64,0.00,BKN,,0.01,WeatherDisplay:10.37,2013-07-24 16:13:00,
2013-07-24 12:18:00,67.5,56.2,29.93,NE,45,7.4,10.4,67,0.00,BKN,,0.01,WeatherDisplay:10.37,2013-07-24 16:18:00,
2013-07-24 12:23:00,67.3,57.2,29.93,NW,315,3.8,8.1,70,0.00,BKN,,0.01,WeatherDisplay:10.37,2013-07-24 16:23:00,
2013-07-24 12:28:00,68.7,56.9,29.93,West,270,7.5,9.5,66,0.00,BKN,,0.01,WeatherDisplay:10.37,2013-07-24 16:28:00,
2013-07-24 12:33:00,67.3,56.4,29.93,West,270,6.3,8.1,68,0.00,BKN,,0.01,WeatherDisplay:10.37,2013-07-24 16:33:00,
2013-07-24 12:38:00,67.3,56.8,29.93,WNW,292,3.5,6.1,69,0.00,BKN,,0.01,WeatherDisplay:10.37,2013-07-24 16:38:00,
2013-07-24 12:43:00,67.3,56.8,29.93,ENE,68,5.3,5.8,69,0.00,BKN,,0.01,WeatherDisplay:10.37,2013-07-24 16:43:00,
2013-07-24 12:48:00,67.6,57.1,29.93,WNW,292,5.0,6.1,69,0.00,BKN,,0.01,WeatherDisplay:10.37,2013-07-24 16:48:00,
2013-07-24 12:53:00,70.0,57.7,29.92,ESE,112,4.4,6.1,65,0.00,BKN,,0.01,WeatherDisplay:10.37,2013-07-24 16:53:00,
2013-07-24 12:59:00,68.9,57.1,29.92,West,270,5.3,7.0,66,0.00,BKN,,0.01,WeatherDisplay:10.37,2013-07-24 16:59:00,
2013-07-24 13:04:00,68.5,56.7,29.92,West,270,7.8,11.2,66,0.00,BKN,,0.01,WeatherDisplay:10.37,2013-07-24 17:04:00,
2013-07-24 13:09:00,68.2,57.6,29.92,West,270,5.2,7.8,69,0.00,BKN,,0.01,WeatherDisplay:10.37,2013-07-24 17:09:00,
2013-07-24 13:14:00,67.6,57.1,29.92,NNW,338,4.2,5.8,69,0.00,BKN,,0.01,WeatherDisplay:10.37,2013-07-24 17:14:00,
2013-07-24 13:19:00,68.2,57.2,29.92,North,360,4.5,5.8,68,0.00,BKN,,0.01,WeatherDisplay:10.37,2013-07-24 17:19:00,
2013-07-24 13:24:00,69.4,57.5,29.92,NNE,22,5.6,7.0,66,0.00,BKN,,0.01,WeatherDisplay:10.37,2013-07-24 17:24:00,
2013-07-24 13:29:00,68.5,57.5,29.92,West,270,5.7,7.8,68,0.00,BKN,,0.01,WeatherDisplay:10.37,2013-07-24 17:29:00,
2013-07-24 13:34:00,69.8,57.9,29.92,West,270,3.1,4.6,66,0.00,BKN,,0.01,WeatherDisplay:10.37,2013-07-24 17:34:00,
2013-07-24 13:39:00,70.9,57.7,29.92,West,270,9.2,12.1,63,0.00,BKN,,0.01,WeatherDisplay:10.37,2013-07-24 17:39:00,
2013-07-24 13:44:00,70.9,58.1,29.92,West,270,5.8,7.0,64,0.00,BKN,,0.01,WeatherDisplay:10.37,2013-07-24 17:44:00,
2013-07-24 13:49:00,72.0,57.4,29.92,NE,45,5.7,9.2,60,0.00,BKN,,0.01,WeatherDisplay:10.37,2013-07-24 17:49:00,
2013-07-24 13:54:00,72.7,58.5,29.92,East,90,9.8,10.4,61,0.00,BKN,,0.01,WeatherDisplay:10.37,2013-07-24 17:54:00,
2013-07-24 13:59:00,71.6,58.3,29.92,NNW,338,5.8,7.0,63,0.00,BKN,,0.01,WeatherDisplay:10.37,2013-07-24 17:59:00,
2013-07-24 14:04:00,69.1,57.7,29.92,WNW,292,6.8,10.4,67,0.00,BKN,,0.01,WeatherDisplay:10.37,2013-07-24 18:04:00,
2013-07-24 14:09:00,68.4,57.0,29.92,WSW,248,5.1,6.1,67,0.00,BKN,,0.01,WeatherDisplay:10.37,2013-07-24 18:09:00,
2013-07-24 14:14:00,69.4,56.7,29.92,West,270,5.2,10.4,64,0.00,BKN,,0.01,WeatherDisplay:10.37,2013-07-24 18:14:00,
2013-07-24 14:19:00,71.1,57.9,29.91,WSW,248,6.0,9.2,63,0.00,BKN,,0.01,WeatherDisplay:10.37,2013-07-24 18:19:00,
2013-07-24 14:24:00,70.7,57.0,29.91,NNE,22,5.0,10.4,62,0.00,BKN,,0.01,WeatherDisplay:10.37,2013-07-24 18:24:00,
2013-07-24 14:27:00,71.8,57.2,29.91,NW,315,3.4,6.9,60,0.00,BKN,,0.01,WeatherDisplay:10.37,2013-07-24 18:27:00,
2013-07-24 14:32:00,71.1,57.4,29.91,WNW,292,8.0,9.2,62,0.00,BKN,,0.01,WeatherDisplay:10.37,2013-07-24 18:32:00,
2013-07-24 14:37:00,71.6,57.9,29.91,West,270,5.3,9.5,62,0.00,BKN,,0.01,WeatherDisplay:10.37,2013-07-24 18:37:00,
2013-07-24 14:42:00,70.2,56.6,29.92,NW,315,5.3,9.2,62,0.00,BKN,,0.01,WeatherDisplay:10.37,2013-07-24 18:42:00,
2013-07-24 14:47:00,69.3,56.6,29.92,North,360,4.6,7.8,64,0.00,BKN,,0.01,WeatherDisplay:10.37,2013-07-24 18:47:00,
2013-07-24 14:52:00,69.1,56.4,29.92,ENE,68,5.5,9.2,64,0.00,BKN,,0.01,WeatherDisplay:10.37,2013-07-24 18:52:00,
2013-07-24 14:57:00,68.7,56.9,29.92,WSW,248,4.4,4.6,66,0.00,BKN,,0.01,WeatherDisplay:10.37,2013-07-24 18:57:00,
2013-07-24 14:58:00,68.7,56.5,29.92,WSW,248,3.7,4.6,65,0.00,BKN,,0.01,WeatherDisplay:10.37,2013-07-24 18:58:00,
2013-07-24 15:03:00,68.5,56.7,29.91,NE,45,1.8,5.8,66,0.00,BKN,,0.01,WeatherDisplay:10.37,2013-07-24 19:03:00,
2013-07-24 15:08:00,69.6,56.4,29.91,NW,315,5.9,8.1,63,0.00,BKN,,0.01,WeatherDisplay:10.37,2013-07-24 19:08:00,
2013-07-24 15:13:00,71.2,58.4,29.91,NNW,338,5.1,7.0,64,0.00,BKN,,0.01,WeatherDisplay:10.37,2013-07-24 19:13:00,
2013-07-24 15:18:00,72.0,58.3,29.92,WNW,292,4.9,9.2,62,0.00,BKN,,0.01,WeatherDisplay:10.37,2013-07-24 19:18:00,
2013-07-24 15:23:00,71.1,57.4,29.92,WNW,292,2.6,5.8,62,0.00,BKN,,0.01,WeatherDisplay:10.37,2013-07-24 19:23:00,
2013-07-24 15:28:00,69.3,57.0,29.92,West,270,4.0,5.8,65,0.00,BKN,,0.01,WeatherDisplay:10.37,2013-07-24 19:28:00,
2013-07-24 15:33:00,72.0,57.4,29.92,North,360,5.2,8.1,60,0.00,BKN,,0.01,WeatherDisplay:10.37,2013-07-24 19:33:00,
2013-07-24 15:39:00,72.7,56.1,29.92,SW,225,4.5,9.2,56,0.00,BKN,,0.01,WeatherDisplay:10.37,2013-07-24 19:39:00,
2013-07-24 15:44:00,73.0,55.9,29.92,West,270,6.5,10.4,55,0.00,BKN,,0.01,WeatherDisplay:10.37,2013-07-24 19:44:00,
2013-07-24 15:49:00,72.5,57.8,29.92,North,360,5.8,9.2,60,0.00,BKN,,0.01,WeatherDisplay:10.37,2013-07-24 19:49:00,
2013-07-24 15:54:00,71.8,57.2,29.92,SE,135,6.3,9.5,60,0.00,BKN,,0.01,WeatherDisplay:10.37,2013-07-24 19:54:00,
2013-07-24 15:59:00,71.4,56.3,29.92,WSW,248,8.4,12.1,59,0.00,BKN,,0.01,WeatherDisplay:10.37,2013-07-24 19:59:00,
2013-07-24 16:04:00,70.9,57.2,29.93,West,270,4.6,6.1,62,0.00,BKN,,0.01,WeatherDisplay:10.37,2013-07-24 20:04:00,
2013-07-24 16:09:00,72.3,56.7,29.93,NNW,338,6.5,8.1,58,0.00,BKN,,0.01,WeatherDisplay:10.37,2013-07-24 20:09:00,
2013-07-24 16:14:00,73.4,56.2,29.93,NNW,338,4.1,6.9,55,0.00,BKN,,0.01,WeatherDisplay:10.37,2013-07-24 20:14:00,
2013-07-24 16:19:00,73.6,57.4,29.92,West,270,3.9,8.1,57,0.00,BKN,,0.01,WeatherDisplay:10.37,2013-07-24 20:19:00,
2013-07-24 16:24:00,72.3,56.2,29.92,NE,45,5.2,7.0,57,0.00,BKN,,0.01,WeatherDisplay:10.37,2013-07-24 20:24:00,
2013-07-24 16:29:00,71.8,55.7,29.93,NNE,22,4.6,8.1,57,0.00,BKN,,0.01,WeatherDisplay:10.37,2013-07-24 20:29:00,
2013-07-24 16:34:00,71.2,56.1,29.93,NNE,22,5.3,6.1,59,0.00,BKN,,0.01,WeatherDisplay:10.37,2013-07-24 20:34:00,
2013-07-24 16:39:00,73.0,56.4,29.93,East,90,7.3,9.2,56,0.00,BKN,,0.01,WeatherDisplay:10.37,2013-07-24 20:39:00,
2013-07-24 16:44:00,72.1,56.0,29.92,West,270,5.3,8.7,57,0.00,BKN,,0.01,WeatherDisplay:10.37,2013-07-24 20:44:00,
2013-07-24 16:49:00,73.0,56.9,29.92,NNE,22,4.2,6.1,57,0.00,BKN,,0.01,WeatherDisplay:10.37,2013-07-24 20:49:00,
2013-07-24 16:54:00,73.6,56.4,29.92,WNW,292,3.2,6.1,55,0.00,BKN,,0.01,WeatherDisplay:10.37,2013-07-24 20:54:00,
2013-07-24 16:59:00,73.2,56.6,29.92,WNW,292,4.4,6.9,56,0.00,BKN,,0.01,WeatherDisplay:10.37,2013-07-24 20:59:00,
2013-07-24 17:04:00,73.4,56.2,29.92,NE,45,5.1,10.4,55,0.00,BKN,,0.01,WeatherDisplay:10.37,2013-07-24 21:04:00,
2013-07-24 17:09:00,73.8,56.1,29.92,East,90,7.1,9.5,54,0.00,BKN,,0.01,WeatherDisplay:10.37,2013-07-24 21:09:00,
2013-07-24 17:14:00,72.7,55.6,29.92,NNW,338,4.4,5.8,55,0.00,BKN,,0.01,WeatherDisplay:10.37,2013-07-24 21:14:00,
2013-07-24 17:19:00,73.4,57.2,29.92,West,270,4.6,5.8,57,0.00,BKN,,0.01,WeatherDisplay:10.37,2013-07-24 21:19:00,
2013-07-24 17:24:00,73.6,57.9,29.92,NNW,338,5.8,11.5,58,0.00,BKN,,0.01,WeatherDisplay:10.37,2013-07-24 21:24:00,
2013-07-24 17:29:00,73.8,56.6,29.92,NNE,22,4.4,6.9,55,0.00,BKN,,0.01,WeatherDisplay:10.37,2013-07-24 21:29:00,
2013-07-24 17:34:00,75.0,57.7,29.92,NE,45,6.2,9.5,55,0.00,BKN,,0.01,WeatherDisplay:10.37,2013-07-24 21:34:00,
2013-07-24 17:39:00,75.0,57.2,29.92,West,270,3.4,5.8,54,0.00,BKN,,0.01,WeatherDisplay:10.37,2013-07-24 21:39:00,
2013-07-24 17:44:00,73.9,56.7,29.92,NNE,22,4.5,9.2,55,0.00,BKN,,0.01,WeatherDisplay:10.37,2013-07-24 21:44:00,
2013-07-24 17:49:00,73.2,57.5,29.92,North,360,5.5,8.1,58,0.00,BKN,,0.01,WeatherDisplay:10.37,2013-07-24 21:49:00,
2013-07-24 17:54:00,73.6,56.4,29.92,ENE,68,4.2,5.8,55,0.00,BKN,,0.01,WeatherDisplay:10.37,2013-07-24 21:54:00,
2013-07-24 17:59:00,72.5,57.4,29.92,East,90,6.0,8.1,59,0.00,BKN,,0.01,WeatherDisplay:10.37,2013-07-24 21:59:00,
2013-07-24 18:04:00,72.7,57.1,29.92,East,90,6.5,9.5,58,0.00,BKN,,0.01,WeatherDisplay:10.37,2013-07-24 22:04:00,
2013-07-24 18:09:00,72.0,57.4,29.92,South,180,6.0,8.1,60,0.00,BKN,,0.01,WeatherDisplay:10.37,2013-07-24 22:09:00,
2013-07-24 18:14:00,73.4,58.2,29.92,NNE,22,3.3,4.6,59,0.00,BKN,,0.01,WeatherDisplay:10.37,2013-07-24 22:14:00,
2013-07-24 18:19:00,73.0,58.8,29.92,West,270,0.0,4.6,61,0.00,BKN,,0.01,WeatherDisplay:10.37,2013-07-24 22:19:00,
2013-07-24 18:24:00,72.7,58.0,29.92,NE,45,4.7,5.8,60,0.00,BKN,,0.01,WeatherDisplay:10.37,2013-07-24 22:24:00,
2013-07-24 18:29:00,71.8,58.1,29.91,NE,45,5.0,7.0,62,0.00,BKN,,0.01,WeatherDisplay:10.37,2013-07-24 22:29:00,
2013-07-24 18:34:00,71.8,58.5,29.91,NE,45,1.1,2.3,63,0.00,BKN,,0.01,WeatherDisplay:10.37,2013-07-24 22:34:00,
2013-07-24 18:39:00,71.6,56.5,29.91,NE,45,4.5,5.8,59,0.00,BKN,,0.01,WeatherDisplay:10.37,2013-07-24 22:39:00,
2013-07-24 18:44:00,72.5,56.9,29.92,NE,45,4.2,5.8,58,0.00,BKN,,0.01,WeatherDisplay:10.37,2013-07-24 22:44:00,
2013-07-24 18:49:00,72.3,57.2,29.92,SSW,202,6.1,12.7,59,0.00,BKN,,0.01,WeatherDisplay:10.37,2013-07-24 22:49:00,
2013-07-24 18:54:00,72.0,57.4,29.92,East,90,6.9,11.5,60,0.00,BKN,,0.01,WeatherDisplay:10.37,2013-07-24 22:54:00,
2013-07-24 18:59:00,71.8,57.2,29.92,ENE,68,5.3,6.1,60,0.00,BKN,,0.01,WeatherDisplay:10.37,2013-07-24 22:59:00,
2013-07-24 19:04:00,71.8,57.2,29.92,ENE,68,2.8,5.8,60,0.00,SCT,,0.01,WeatherDisplay:10.37,2013-07-24 23:04:00,
2013-07-24 19:09:00,71.6,58.3,29.92,ENE,68,2.9,4.6,63,0.00,SCT,,0.01,WeatherDisplay:10.37,2013-07-24 23:09:00,
2013-07-24 19:14:00,71.4,57.7,29.92,NE,45,4.0,5.8,62,0.00,SCT,,0.01,WeatherDisplay:10.37,2013-07-24 23:14:00,
2013-07-24 19:19:00,71.1,57.4,29.92,NE,45,3.8,6.1,62,0.00,SCT,,0.01,WeatherDisplay:10.37,2013-07-24 23:19:00,
2013-07-24 19:24:00,70.9,58.1,29.92,NE,45,3.8,4.4,64,0.00,SCT,,0.01,WeatherDisplay:10.37,2013-07-24 23:24:00,
2013-07-24 19:29:00,70.7,57.5,29.92,NE,45,2.3,5.8,63,0.00,SCT,,0.01,WeatherDisplay:10.37,2013-07-24 23:29:00,
2013-07-24 19:34:00,70.5,58.6,29.92,NE,45,0.5,3.5,66,0.00,SCT,,0.01,WeatherDisplay:10.37,2013-07-24 23:34:00,
2013-07-24 19:39:00,69.6,57.7,29.93,North,360,3.0,6.9,66,0.00,SCT,,0.01,WeatherDisplay:10.37,2013-07-24 23:39:00,
2013-07-24 19:44:00,69.4,58.0,29.93,ESE,112,0.0,2.3,67,0.00,SCT,,0.01,WeatherDisplay:10.37,2013-07-24 23:44:00,
2013-07-24 19:49:00,68.9,57.9,29.93,NE,45,2.1,6.9,68,0.00,SCT,,0.01,WeatherDisplay:10.37,2013-07-24 23:49:00,
2013-07-24 19:54:00,68.4,57.4,29.93,NE,45,0.0,2.3,68,0.00,SCT,,0.01,WeatherDisplay:10.37,2013-07-24 23:54:00,
2013-07-24 19:59:00,68.0,57.8,29.93,NE,45,0.0,2.3,70,0.00,SCT,,0.01,WeatherDisplay:10.37,2013-07-24 23:59:00,
2013-07-24 20:04:00,67.3,57.6,29.93,NE,45,2.3,4.4,71,0.00,SKC,,0.01,WeatherDisplay:10.37,2013-07-25 00:04:00,
2013-07-24 20:09:00,67.3,58.3,29.93,NE,45,0.0,0.0,73,0.00,SKC,,0.01,WeatherDisplay:10.37,2013-07-25 00:09:00,
2013-07-24 20:14:00,66.9,57.6,29.93,NE,45,0.0,0.0,72,0.00,SKC,,0.01,WeatherDisplay:10.37,2013-07-25 00:14:00,
2013-07-24 20:19:00,66.2,57.3,29.93,NE,45,2.4,3.5,73,0.00,SKC,,0.01,WeatherDisplay:10.37,2013-07-25 00:19:00,
2013-07-24 20:24:00,65.7,57.6,29.93,NE,45,0.0,0.0,75,0.00,SKC,,0.01,WeatherDisplay:10.37,2013-07-25 00:24:00,
2013-07-24 20:29:00,64.9,57.2,29.94,NE,45,0.0,0.0,76,0.00,SKC,,0.01,WeatherDisplay:10.37,2013-07-25 00:29:00,
2013-07-24 20:34:00,64.2,56.8,29.94,WNW,292,2.0,3.5,77,0.00,SKC,,0.01,WeatherDisplay:10.37,2013-07-25 00:34:00,
2013-07-24 20:39:00,63.9,57.6,29.94,WNW,292,3.0,3.6,80,0.00,SKC,,0.01,WeatherDisplay:10.37,2013-07-25 00:39:00,
2013-07-24 20:44:00,63.3,57.7,29.94,WNW,292,0.3,2.3,82,0.00,SKC,,0.01,WeatherDisplay:10.37,2013-07-25 00:44:00,
2013-07-24 20:49:00,62.8,57.9,29.94,WNW,292,0.0,0.0,84,0.00,SKC,,0.01,WeatherDisplay:10.37,2013-07-25 00:49:00,
2013-07-24 20:54:00,62.2,57.6,29.94,WNW,292,0.0,0.0,85,0.00,SKC,,0.01,WeatherDisplay:10.37,2013-07-25 00:54:00,
2013-07-24 20:59:00,61.9,57.0,29.94,WNW,292,0.0,0.0,84,0.00,SKC,,0.01,WeatherDisplay:10.37,2013-07-25 00:59:00,
2013-07-24 21:04:00,61.5,56.9,29.95,WNW,292,0.0,0.0,85,0.00,SKC,,0.01,WeatherDisplay:10.37,2013-07-25 01:04:00,
2013-07-24 21:09:00,61.2,57.3,29.95,WNW,292,0.0,0.0,87,0.00,SKC,,0.01,WeatherDisplay:10.37,2013-07-25 01:09:00,
2013-07-24 21:14:00,60.8,56.9,29.95,WNW,292,0.0,0.0,87,0.00,SKC,,0.01,WeatherDisplay:10.37,2013-07-25 01:14:00,
2013-07-24 21:19:00,60.4,56.5,29.95,WNW,292,0.0,0.0,87,0.00,SKC,,0.01,WeatherDisplay:10.37,2013-07-25 01:19:00,
2013-07-24 21:24:00,60.3,56.4,29.95,WNW,292,0.0,0.0,87,0.00,SKC,,0.01,WeatherDisplay:10.37,2013-07-25 01:24:00,
2013-07-24 21:29:00,59.7,56.1,29.95,WNW,292,0.0,0.0,88,0.00,SKC,,0.01,WeatherDisplay:10.37,2013-07-25 01:29:00,
2013-07-24 21:34:00,59.5,55.9,29.95,WNW,292,0.0,0.0,88,0.00,SKC,,0.01,WeatherDisplay:10.37,2013-07-25 01:34:00,
2013-07-24 21:39:00,59.4,56.5,29.95,WNW,292,0.0,0.0,90,0.00,SKC,,0.01,WeatherDisplay:10.37,2013-07-25 01:39:00,
2013-07-24 21:44:00,59.4,56.5,29.96,WNW,292,0.0,0.0,90,0.00,SKC,,0.01,WeatherDisplay:10.37,2013-07-25 01:44:00,
2013-07-24 21:49:00,59.2,56.0,29.96,WNW,292,0.0,0.0,89,0.00,SKC,,0.01,WeatherDisplay:10.37,2013-07-25 01:49:00,
2013-07-24 21:54:00,58.6,56.0,29.96,WNW,292,0.0,0.0,91,0.00,SKC,,0.01,WeatherDisplay:10.37,2013-07-25 01:54:00,
2013-07-24 21:59:00,58.3,56.0,29.96,WNW,292,0.0,0.0,92,0.00,SKC,,0.01,WeatherDisplay:10.37,2013-07-25 01:59:00,
2013-07-24 22:04:00,58.1,56.1,29.97,WNW,292,0.0,0.0,93,0.00,CLR,,0.01,WeatherDisplay:10.37,2013-07-25 02:04:00,
2013-07-24 22:09:00,58.1,56.4,29.97,WNW,292,0.0,0.0,94,0.00,CLR,,0.01,WeatherDisplay:10.37,2013-07-25 02:09:00,
2013-07-24 22:14:00,57.6,55.9,29.97,WNW,292,0.0,0.0,94,0.00,CLR,,0.01,WeatherDisplay:10.37,2013-07-25 02:14:00,
2013-07-24 22:19:00,57.4,56.0,29.97,WNW,292,0.0,0.0,95,0.00,CLR,,0.01,WeatherDisplay:10.37,2013-07-25 02:19:00,
2013-07-24 22:24:00,57.4,56.0,29.97,WNW,292,0.0,0.0,95,0.00,CLR,,0.01,WeatherDisplay:10.37,2013-07-25 02:24:00,
2013-07-24 22:29:00,57.0,55.6,29.97,WNW,292,0.0,0.0,95,0.00,CLR,,0.01,WeatherDisplay:10.37,2013-07-25 02:29:00,
2013-07-24 22:35:00,56.8,55.4,29.97,WNW,292,0.0,0.0,95,0.00,CLR,CLR,0.01,WeatherDisplay:10.37,2013-07-25 02:35:00,
2013-07-24 22:40:00,56.7,55.6,29.97,WNW,292,0.0,0.0,96,0.00,CLR,CLR,0.01,WeatherDisplay:10.37,2013-07-25 02:40:00,
2013-07-24 22:45:00,56.3,55.5,29.97,WNW,292,0.0,0.0,97,0.00,CLR,,0.01,WeatherDisplay:10.37,2013-07-25 02:45:00,
2013-07-24 22:50:00,56.3,55.5,29.97,WNW,292,0.0,0.0,97,0.00,CLR,,0.01,WeatherDisplay:10.37,2013-07-25 02:50:00,
2013-07-24 22:55:00,56.3,55.5,29.97,WNW,292,0.0,0.0,97,0.00,CLR,,0.01,WeatherDisplay:10.37,2013-07-25 02:55:00,
2013-07-24 23:00:00,56.3,55.5,29.97,WNW,292,0.0,0.0,97,0.00,CLR,,0.01,WeatherDisplay:10.37,2013-07-25 03:00:00,
2013-07-24 23:05:00,56.1,55.3,29.97,WNW,292,0.0,0.0,97,0.00,CLR,,0.01,WeatherDisplay:10.37,2013-07-25 03:05:00,
2013-07-24 23:10:00,56.1,55.3,29.97,WNW,292,0.0,0.0,97,0.00,CLR,,0.01,WeatherDisplay:10.37,2013-07-25 03:10:00,
2013-07-24 23:15:00,55.9,55.1,29.98,WNW,292,0.0,0.0,97,0.00,CLR,,0.01,WeatherDisplay:10.37,2013-07-25 03:15:00,
2013-07-24 23:20:00,55.9,55.1,29.98,WNW,292,0.0,0.0,97,0.00,CLR,,0.01,WeatherDisplay:10.37,2013-07-25 03:20:00,
2013-07-24 23:27:00,55.6,54.8,29.98,WNW,292,0.0,0.0,97,0.00,CLR,,0.01,WeatherDisplay:10.37,2013-07-25 03:27:00,
2013-07-24 23:33:00,55.6,55.0,29.98,WNW,292,0.0,0.0,98,0.00,CLR,,0.01,WeatherDisplay:10.37,2013-07-25 03:33:00,
2013-07-24 23:38:00,55.6,55.0,29.98,WNW,292,0.0,0.0,98,0.00,CLR,,0.01,WeatherDisplay:10.37,2013-07-25 03:38:00,
2013-07-24 23:43:00,55.0,54.4,29.98,WNW,292,0.0,0.0,98,0.00,CLR,,0.01,WeatherDisplay:10.37,2013-07-25 03:43:00,
2013-07-24 23:48:00,55.0,54.4,29.98,WNW,292,0.0,0.0,98,0.00,CLR,,0.01,WeatherDisplay:10.37,2013-07-25 03:48:00,
2013-07-24 23:54:00,55.0,54.4,29.99,WNW,292,0.0,0.0,98,0.00,CLR,,0.01,WeatherDisplay:10.37,2013-07-25 03:54:00,